CW4517 Weather Reports


Display with metric or nautical units.
time (UTC)temp
F
wind
direction
speed
MPH
gust
MPH
rain 1hr
in
rain 24hr
in
rain mn
in
humidity
%
barometer
mb
20260902051216 78 208 1.0 4.0 0.00 0.00 0.00 82 1011.4
20260902050450 78 197 1.0 4.0 0.00 0.00 0.00 82 1011.4
20260902045942 78 186 1.0 5.0 0.00 0.00 0.00 82 1011.5
20260902045441 78 223 2.0 5.0 0.00 0.00 0.00 82 1011.5
20260902044935 78 225 1.0 3.0 0.00 0.00 0.00 82 1011.5
20260902044428 78 197 1.0 4.0 0.00 0.00 0.00 82 1011.7
20260902043923 78 255 1.0 4.0 0.00 0.00 0.00 82 1011.7
20260902043417 78 185 1.0 3.0 0.00 0.00 0.00 82 1011.7
20260902042912 78 246 1.0 3.0 0.00 0.00 0.00 82 1011.6
20260902042401 78 181 1.0 2.0 0.00 0.00 0.00 82 1011.6
20260902041858 78 184 1.0 2.0 0.00 0.00 0.00 82 1011.6
20260902041352 78 213 1.0 3.0 0.00 0.00 0.00 82 1011.7
20260902041105 79 207 0.0 3.0 0.00 0.00 0.00 82 1011.7
20260902040341 79 192 0.0 2.0 0.00 0.00 0.00 82 1011.7
20260902035831 79 186 0.0 2.0 0.00 0.00 0.00 82 1011.6
20260902035329 79 223 0.0 2.0 0.00 0.00 0.00 81 1011.6
20260902034822 79 223 1.0 3.0 0.00 0.00 0.00 81 1011.6
20260902034541 79 223 1.0 3.0 0.00 0.00 0.00 81 1011.6
20260902033810 79 223 1.0 3.0 0.00 0.00 0.00 81 1011.6
20260902033305 80 219 2.0 4.0 0.00 0.00 0.00 81 1011.6
20260902032758 80 218 2.0 4.0 0.00 0.00 0.00 81 1011.7
20260902032512 80 225 2.0 4.0 0.00 0.00 0.00 81 1011.7
20260902031746 80 225 2.0 4.0 0.00 0.00 0.00 81 1011.7
20260902031240 80 227 3.0 5.0 0.00 0.00 0.00 81 1011.6
20260902030956 80 234 2.0 5.0 0.00 0.00 0.00 81 1011.6
20260902030229 80 208 2.0 5.0 0.00 0.00 0.00 81 1011.6
20260902025723 80 232 2.0 5.0 0.00 0.00 0.00 81 1011.6
20260902025215 80 234 2.0 5.0 0.00 0.00 0.00 80 1011.6
20260902024713 80 232 2.0 6.0 0.00 0.00 0.00 80 1011.6
20260902024209 80 229 2.0 6.0 0.00 0.00 0.00 80 1011.5
20260902024200 81 225 2.0 4.0 0.00 0.00 0.00 80 1011.5
20260902023209 81 217 2.0 5.0 0.00 0.00 0.00 80 1011.5
20260902022710 81 197 2.0 5.0 0.00 0.00 0.00 80 1011.5
20260902022210 81 224 3.0 5.0 0.00 0.00 0.00 80 1011.5
20260902021710 82 232 3.0 6.0 0.00 0.00 0.00 80 1011.5
20260902021210 82 225 4.0 6.0 0.00 0.00 0.00 79 1011.4
20260902020710 82 221 3.0 6.0 0.00 0.00 0.00 79 1011.4
20260902020205 82 230 3.0 6.0 0.00 0.00 0.00 80 1011.4
20260902015651 82 223 3.0 5.0 0.00 0.00 0.00 80 1011.3
20260902015144 82 219 3.0 5.0 0.00 0.00 0.00 80 1011.3
20260902014637 82 236 2.0 4.0 0.00 0.00 0.00 80 1011.3
20260902014127 82 246 2.0 5.0 0.00 0.00 0.00 80 1011.0
20260902013625 82 209 1.0 5.0 0.00 0.00 0.00 80 1011.0
20260902013119 83 216 1.0 4.0 0.00 0.00 0.00 80 1011.0
20260902012615 83 219 2.0 6.0 0.00 0.00 0.00 80 1010.9
20260902012108 83 221 2.0 6.0 0.00 0.00 0.00 79 1010.9
20260902011603 83 226 1.0 5.0 0.00 0.00 0.00 79 1010.9
20260902011056 84 217 1.0 3.0 0.00 0.00 0.00 79 1010.8
20260902010545 84 231 1.0 3.0 0.00 0.00 0.00 79 1010.8
20260902010043 84 232 1.0 3.0 0.00 0.00 0.00 79 1010.8
20260902005539 85 243 0.0 2.0 0.00 0.00 0.00 78 1010.7
20260902005033 85 211 0.0 2.0 0.00 0.00 0.00 78 1010.7
20260902004526 85 183 0.0 0.0 0.00 0.00 0.00 78 1010.7
20260902004021 86 184 0.0 0.0 0.00 0.00 0.00 77 1010.7
20260902003514 86 204 0.0 0.0 0.00 0.00 0.00 77 1010.7
20260902003226 86 202 0.0 0.0 0.00 0.00 0.00 77 1010.7
20260902002501 87 171 0.0 1.0 0.00 0.00 0.00 76 1010.8
20260902001956 87 205 1.0 5.0 0.00 0.00 0.00 76 1010.8
20260902001450 87 176 1.0 5.0 0.00 0.00 0.00 75 1010.8
20260902000943 88 213 1.0 3.0 0.00 0.03 0.00 74 1010.8
20260902000655 88 213 1.0 3.0 0.00 0.04 0.00 74 1010.8
20260901235931 89 240 0.0 3.0 0.00 0.04 0.00 74 1010.8
20260901235426 89 213 0.0 3.0 0.00 0.04 0.00 74 1010.8
20260901234919 89 234 1.0 4.0 0.00 0.04 0.00 73 1010.8
20260901234904 90 221 1.0 4.0 0.00 0.04 0.00 72 1010.9
20260901233903 90 224 0.0 3.0 0.00 0.04 0.00 71 1010.9
20260901233400 91 198 1.0 3.0 0.00 0.04 0.00 70 1010.9
20260901232855 91 205 2.0 3.0 0.00 0.04 0.00 70 1010.9
20260901232349 91 209 1.0 5.0 0.00 0.04 0.00 69 1010.9
20260901231844 91 196 0.0 5.0 0.00 0.04 0.00 70 1010.9
20260901231334 91 221 1.0 5.0 0.00 0.04 0.00 70 1010.9
20260901230830 91 224 2.0 6.0 0.00 0.04 0.00 69 1010.9
20260901230327 92 244 2.0 6.0 0.00 0.04 0.00 69 1010.9
20260901225826 92 221 2.0 5.0 0.00 0.04 0.00 69 1010.8
20260901225327 92 200 3.0 6.0 0.00 0.04 0.00 68 1010.8
20260901224827 92 234 3.0 8.0 0.00 0.04 0.00 68 1010.8
20260901224326 92 191 3.0 8.0 0.00 0.04 0.00 67 1010.9
20260901223825 92 236 1.0 8.0 0.00 0.04 0.00 66 1010.9
20260901223324 92 225 2.0 8.0 0.00 0.04 0.00 67 1010.9
20260901222828 92 221 3.0 8.0 0.00 0.04 0.00 65 1010.9
20260901222325 93 234 4.0 9.0 0.00 0.04 0.00 67 1010.9
20260901221824 93 240 3.0 9.0 0.00 0.04 0.00 67 1010.9
20260901221326 93 238 3.0 9.0 0.00 0.04 0.00 65 1010.8
20260901220820 93 228 3.0 9.0 0.00 0.04 0.00 65 1010.8
20260901220308 93 180 2.0 9.0 0.00 0.04 0.00 66 1010.8
20260901215756 93 263 3.0 9.0 0.00 0.04 0.00 65 1010.9
20260901215244 93 242 3.0 7.0 0.00 0.04 0.00 66 1010.9
20260901214736 93 232 3.0 7.0 0.00 0.04 0.00 67 1010.9
20260901214229 93 215 2.0 7.0 0.00 0.04 0.00 67 1010.9
20260901213722 93 173 2.0 7.0 0.00 0.04 0.00 67 1010.9
20260901213212 93 186 3.0 8.0 0.00 0.04 0.00 67 1010.9
20260901212710 93 230 3.0 8.0 0.00 0.04 0.00 67 1010.9
20260901212205 93 217 3.0 7.0 0.00 0.04 0.00 66 1010.9
20260901211658 93 228 3.0 6.0 0.00 0.04 0.00 65 1010.9
20260901211152 93 247 4.0 7.0 0.00 0.04 0.00 65 1010.9
20260901210646 93 227 4.0 9.0 0.00 0.04 0.00 65 1010.9
20260901210140 93 217 4.0 9.0 0.00 0.04 0.00 66 1010.9
20260901205851 93 206 3.0 9.0 0.00 0.04 0.00 65 1011.0
20260901205129 94 211 2.0 8.0 0.00 0.04 0.00 65 1011.0
20260901204623 93 182 3.0 8.0 0.00 0.04 0.00 66 1011.0
20260901204118 93 215 4.0 10.0 0.00 0.04 0.00 66 1011.1
20260901203611 93 225 3.0 10.0 0.00 0.04 0.00 66 1011.1
20260901203101 93 231 4.0 11.0 0.00 0.04 0.00 67 1011.1
20260901202559 93 224 4.0 11.0 0.00 0.04 0.00 66 1011.1
20260901202054 93 311 4.0 11.0 0.00 0.04 0.00 66 1011.1
20260901201546 93 165 4.0 11.0 0.00 0.04 0.00 66 1011.1
20260901201040 93 199 3.0 8.0 0.00 0.04 0.00 64 1011.2
20260901200534 93 200 3.0 8.0 0.00 0.04 0.00 66 1011.2
20260901200028 93 159 4.0 9.0 0.00 0.04 0.00 67 1011.2
20260901195517 92 208 5.0 11.0 0.00 0.04 0.00 66 1011.3
20260901195016 92 252 5.0 11.0 0.00 0.04 0.00 67 1011.3
20260901194512 93 214 4.0 11.0 0.00 0.04 0.00 67 1011.3
20260901194006 93 290 3.0 9.0 0.00 0.04 0.00 68 1011.4
20260901193458 92 190 3.0 9.0 0.00 0.04 0.00 67 1011.4
20260901192947 92 240 3.0 8.0 0.00 0.04 0.00 67 1011.4
20260901192446 92 186 4.0 8.0 0.00 0.04 0.00 67 1011.4
20260901191941 92 201 4.0 9.0 0.00 0.04 0.00 67 1011.4
20260901191434 91 223 4.0 9.0 0.00 0.04 0.00 68 1011.6
20260901191202 91 233 4.0 9.0 0.00 0.04 0.00 68 1011.6
20260901190423 91 247 4.0 9.0 0.00 0.04 0.00 69 1011.6
20260901190135 91 239 5.0 10.0 0.00 0.04 0.00 70 1011.7
20260901185407 90 243 6.0 10.0 0.00 0.04 0.00 70 1011.7
20260901184905 90 228 5.0 10.0 0.00 0.04 0.00 69 1011.7
20260901184359 90 210 5.0 10.0 0.00 0.04 0.00 68 1011.8
20260901183852 90 203 4.0 9.0 0.00 0.04 0.00 69 1011.8
20260901183350 90 236 4.0 8.0 0.00 0.04 0.00 71 1011.8
20260901183112 90 207 4.0 8.0 0.00 0.04 0.00 71 1011.8
20260901182350 90 232 4.0 8.0 0.00 0.04 0.00 70 1011.8
20260901181850 90 234 4.0 11.0 0.00 0.04 0.00 71 1011.8
20260901181349 89 244 4.0 11.0 0.00 0.04 0.00 72 1011.8
20260901180854 89 231 4.0 11.0 0.00 0.04 0.00 71 1011.8
20260901180350 89 199 5.0 11.0 0.00 0.04 0.00 72 1011.8
20260901175850 89 220 5.0 10.0 0.00 0.04 0.00 72 1011.9
20260901175351 89 246 4.0 10.0 0.00 0.04 0.00 72 1011.9
20260901174845 88 203 4.0 10.0 0.00 0.04 0.00 73 1011.9
20260901174333 88 237 5.0 10.0 0.00 0.04 0.00 74 1011.9
20260901173822 87 205 5.0 10.0 0.00 0.04 0.00 73 1011.9
20260901173314 88 262 4.0 9.0 0.00 0.04 0.00 73 1011.9
20260901172807 88 233 4.0 9.0 0.00 0.04 0.00 72 1011.9
20260901172304 87 168 4.0 8.0 0.00 0.04 0.00 75 1011.9
20260901172013 87 225 4.0 9.0 0.00 0.04 0.00 75 1011.9
20260901171507 87 213 4.0 9.0 0.00 0.04 0.00 74 1012.1
20260901170954 87 229 4.0 9.0 0.00 0.04 0.00 74 1012.1
20260901170238 87 233 4.0 9.0 0.00 0.04 0.00 73 1012.1
20260901165731 87 238 4.0 8.0 0.00 0.04 0.00 74 1012.2
20260901165226 87 167 3.0 7.0 0.00 0.04 0.00 74 1012.2
20260901164716 86 228 4.0 9.0 0.00 0.04 0.00 74 1012.2
20260901164701 86 188 4.0 9.0 0.00 0.04 0.00 74 1012.4
20260901163708 86 233 4.0 9.0 0.00 0.04 0.00 75 1012.4
20260901163201 86 237 3.0 8.0 0.00 0.04 0.00 75 1012.4
20260901162658 86 217 3.0 7.0 0.00 0.04 0.00 75 1012.3
20260901162146 85 246 3.0 8.0 0.00 0.04 0.00 75 1012.3
20260901161640 85 200 3.0 9.0 0.00 0.04 0.00 75 1012.3
20260901161138 85 230 3.0 9.0 0.00 0.04 0.00 77 1012.3
20260901160631 84 219 4.0 8.0 0.00 0.04 0.00 76 1012.3
20260901160125 84 167 3.0 8.0 0.00 0.04 0.00 76 1012.3
20260901155619 84 209 3.0 7.0 0.00 0.04 0.00 76 1012.3
20260901155112 84 231 3.0 8.0 0.00 0.04 0.00 78 1012.3
20260901154602 83 223 3.0 8.0 0.00 0.04 0.00 77 1012.3
20260901154101 83 198 2.0 4.0 0.00 0.04 0.00 78 1012.2
20260901154043 82 204 2.0 5.0 0.00 0.04 0.00 79 1012.2
20260901153050 82 236 3.0 8.0 0.00 0.04 0.00 80 1012.2
20260901152538 82 194 3.0 8.0 0.00 0.04 0.00 78 1012.1
20260901152037 82 171 2.0 6.0 0.00 0.04 0.00 79 1012.1
20260901152021 81 178 3.0 8.0 0.00 0.04 0.00 81 1012.1
20260901151249 81 231 4.0 8.0 0.00 0.04 0.00 80 1012.0
20260901150518 80 248 4.0 8.0 0.00 0.04 0.00 80 1012.0
20260901150014 80 220 3.0 7.0 0.00 0.04 0.00 82 1012.0
20260901145508 80 229 3.0 8.0 0.00 0.04 0.00 81 1012.0
20260901145002 80 223 3.0 8.0 0.00 0.04 0.00 81 1012.0
20260901144450 80 231 3.0 7.0 0.00 0.04 0.00 81 1012.0
20260901143950 80 220 3.0 6.0 0.00 0.04 0.00 81 1012.0
20260901143443 79 223 4.0 7.0 0.00 0.04 0.00 83 1012.0
20260901142936 79 234 3.0 8.0 0.00 0.04 0.00 82 1012.0
20260901142431 78 223 3.0 8.0 0.00 0.04 0.00 83 1012.0
20260901141925 78 202 3.0 7.0 0.00 0.04 0.00 84 1012.0
20260901141511 78 223 3.0 9.0 0.00 0.04 0.00 84 1011.9
20260901140423 77 235 2.0 6.0 0.00 0.04 0.00 85 1011.9
20260901140405 76 215 3.0 6.0 0.00 0.04 0.00 86 1012.2
20260901135423 76 219 4.0 8.0 0.00 0.04 0.00 86 1012.2
20260901134923 76 231 3.0 8.0 0.00 0.04 0.00 87 1012.2
20260901134422 75 236 3.0 7.0 0.00 0.04 0.00 88 1012.2
20260901133926 75 241 3.0 7.0 0.00 0.04 0.00 89 1012.2
20260901133425 74 217 2.0 5.0 0.00 0.04 0.00 89 1012.2
20260901132920 74 186 2.0 5.0 0.00 0.04 0.00 89 1012.4
20260901132404 74 229 2.0 4.0 0.00 0.04 0.00 89 1012.4
20260901131852 74 223 2.0 4.0 0.00 0.04 0.00 89 1012.4
20260901131347 74 227 3.0 7.0 0.00 0.04 0.00 89 1012.4
20260901131106 74 220 3.0 7.0 0.00 0.04 0.00 89 1012.4
20260901130330 74 233 3.0 6.0 0.00 0.04 0.00 89 1012.4
20260901125829 74 223 2.0 6.0 0.00 0.04 0.00 89 1012.3
20260901125543 74 235 3.0 5.0 0.00 0.04 0.00 89 1012.3
20260901124818 74 194 3.0 6.0 0.00 0.04 0.00 89 1012.3
20260901124537 74 221 3.0 7.0 0.00 0.04 0.00 89 1012.2
20260901123805 73 247 3.0 7.0 0.00 0.04 0.00 90 1012.2
20260901123300 73 197 3.0 7.0 0.00 0.04 0.00 90 1012.2
20260901122748 73 227 3.0 6.0 0.00 0.04 0.00 90 1011.9
20260901122246 73 279 2.0 4.0 0.00 0.04 0.00 90 1011.9
20260901121740 73 180 1.0 4.0 0.00 0.04 0.00 90 1011.9
20260901121234 73 186 2.0 6.0 0.00 0.04 0.00 90 1011.9
20260901120728 73 219 2.0 6.0 0.00 0.04 0.00 90 1011.9
20260901120218 73 215 2.0 5.0 0.00 0.04 0.00 90 1011.9
20260901115716 73 225 2.0 5.0 0.00 0.04 0.00 91 1011.6
20260901115212 73 221 2.0 6.0 0.00 0.04 0.00 91 1011.6
20260901114930 73 216 2.0 6.0 0.00 0.04 0.00 91 1011.6
20260901114159 73 185 2.0 4.0 0.00 0.04 0.00 91 1011.6
20260901113652 73 163 2.0 5.0 0.00 0.04 0.00 91 1011.6
20260901113147 73 167 2.0 5.0 0.00 0.04 0.00 91 1011.6
20260901112635 73 208 2.0 4.0 0.00 0.04 0.00 91 1011.4
20260901112134 73 220 1.0 4.0 0.00 0.04 0.00 91 1011.4
20260901111629 73 211 1.0 4.0 0.00 0.04 0.00 91 1011.4
20260901111123 73 216 1.0 4.0 0.00 0.04 0.00 91 1011.3
20260901110617 73 181 1.0 5.0 0.00 0.04 0.00 91 1011.3
20260901110330 73 186 1.0 5.0 0.00 0.04 0.00 91 1011.3
20260901105604 73 220 1.0 3.0 0.00 0.04 0.00 91 1011.4
20260901105100 73 209 2.0 4.0 0.00 0.04 0.00 90 1011.4
20260901104552 73 213 2.0 4.0 0.00 0.04 0.00 90 1011.4
20260901104047 73 197 2.0 5.0 0.00 0.04 0.00 90 1010.8
20260901103537 74 202 2.0 5.0 0.00 0.04 0.00 89 1010.8
20260901103036 74 90 1.0 3.0 0.00 0.04 0.00 89 1010.8
20260901102528 74 194 1.0 4.0 0.00 0.04 0.00 88 1011.5
20260901102112 74 233 1.0 4.0 0.00 0.04 0.00 88 1011.5
20260901101020 74 231 1.0 4.0 0.00 0.04 0.00 88 1011.4
20260901100521 74 255 1.0 4.0 0.00 0.04 0.00 88 1011.4
20260901100019 74 221 0.0 2.0 0.00 0.04 0.00 88 1011.4
20260901095517 74 218 1.0 3.0 0.00 0.04 0.00 88 1011.2
20260901095018 74 218 1.0 3.0 0.00 0.04 0.00 88 1011.2
20260901094518 74 227 1.0 3.0 0.00 0.04 0.00 88 1011.2
20260901094018 74 227 1.0 6.0 0.00 0.04 0.00 88 1010.9
20260901093739 74 212 2.0 6.0 0.00 0.04 0.00 88 1010.9
20260901093019 74 222 1.0 4.0 0.00 0.04 0.00 88 1010.9
20260901092512 74 227 1.0 4.0 0.00 0.04 0.00 88 1010.9
20260901092000 74 216 1.0 3.0 0.00 0.04 0.00 88 1010.9
20260901091447 74 201 1.0 3.0 0.00 0.04 0.00 88 1010.9
20260901090938 74 218 1.0 3.0 0.00 0.04 0.00 87 1010.9
20260901090433 74 184 1.0 3.0 0.00 0.04 0.00 87 1010.9
20260901085926 75 190 1.0 3.0 0.00 0.04 0.00 87 1011.1
20260901085417 75 194 1.0 5.0 0.00 0.04 0.00 87 1011.1
20260901084913 75 244 2.0 5.0 0.00 0.04 0.00 86 1011.1
20260901084407 75 232 3.0 7.0 0.00 0.04 0.00 86 1010.9
20260901083902 75 213 4.0 7.0 0.00 0.04 0.00 85 1010.9
20260901083356 75 217 4.0 7.0 0.00 0.04 0.00 85 1010.9
20260901082850 75 188 4.0 7.0 0.00 0.04 0.00 84 1010.9
20260901082344 75 207 4.0 7.0 0.00 0.04 0.00 85 1010.9
20260901081832 75 217 3.0 7.0 0.00 0.04 0.00 85 1010.9
20260901081330 75 227 3.0 6.0 0.00 0.04 0.00 85 1010.8
20260901080824 75 221 3.0 7.0 0.00 0.04 0.00 85 1010.8
20260901080314 75 186 3.0 7.0 0.00 0.04 0.00 85 1010.8
20260901080036 75 222 3.0 8.0 0.00 0.04 0.00 85 1010.8
20260901075307 75 221 3.0 8.0 0.00 0.04 0.00 85 1010.8
20260901074759 75 232 4.0 6.0 0.00 0.04 0.00 85 1010.8
20260901074255 75 223 3.0 6.0 0.00 0.04 0.00 85 1010.8
20260901073744 75 215 3.0 6.0 0.00 0.04 0.00 85 1010.8
20260901073238 75 226 3.0 6.0 0.00 0.04 0.00 85 1010.8
20260901072732 75 210 3.0 6.0 0.00 0.04 0.00 85 1010.8
20260901072231 75 232 3.0 6.0 0.00 0.04 0.00 85 1010.8
20260901071723 75 215 3.0 6.0 0.00 0.04 0.00 85 1010.8
20260901071218 75 213 4.0 8.0 0.00 0.04 0.00 85 1010.7
20260901070712 75 229 4.0 8.0 0.00 0.04 0.00 85 1010.7
20260901070201 75 236 3.0 6.0 0.00 0.04 0.00 85 1010.7
20260901065701 75 224 4.0 7.0 0.00 0.04 0.00 85 1010.7
20260901065238 75 229 4.0 7.0 0.00 0.04 0.00 85 1010.7
20260901064141 76 239 4.0 7.0 0.00 0.04 0.00 85 1010.4
20260901063631 76 248 4.0 7.0 0.00 0.04 0.00 84 1010.4
20260901063129 76 234 4.0 7.0 0.00 0.04 0.00 84 1010.4
20260901062622 76 216 4.0 8.0 0.00 0.04 0.00 84 1010.7
20260901062116 76 213 4.0 7.0 0.00 0.04 0.00 84 1010.7
20260901061610 76 216 4.0 7.0 0.00 0.04 0.00 84 1010.7
20260901061059 76 250 3.0 7.0 0.00 0.04 0.00 84 1010.7
20260901060906 76 228 3.0 6.0 0.00 0.04 0.00 84 1010.7
20260901055543 76 221 2.0 5.0 0.00 0.04 0.00 84 1010.8
20260901055043 76 220 2.0 7.0 0.00 0.04 0.00 84 1010.8
20260901054802 76 224 3.0 7.0 0.00 0.04 0.00 84 1010.8
20260901054042 76 223 3.0 6.0 0.00 0.04 0.00 84 1010.8
20260901053543 76 202 3.0 6.0 0.00 0.04 0.00 84 1010.8
20260901053043 77 221 3.0 5.0 0.00 0.04 0.00 84 1010.8
20260901052542 77 203 3.0 5.0 0.00 0.04 0.00 84 1010.8
20260901052042 77 223 3.0 6.0 0.00 0.04 0.00 84 1010.8
20260901051801 77 215 4.0 7.0 0.00 0.04 0.00 83 1010.8